Wind_Speed
86 91 76 76 80 82 85 87 83 79 79 82 76 69 65 69 70 68 65 61 60 56 57 56 58 58 58 53 51 57 55 54 56 57 51 44 40 37 32 27 22 20 23 25
94 78 67 79 81 81 80 78 75 76 75 77 77 72 65 65 66 63 61 61 57 55 56 55 54 58 51 47 52 55 52 53 56 53 44 40 38 34 28 21 20 24 26 30
82 58 82 82 79 75 70 66 71 76 78 76 74 68 61 62 63 59 60 59 55 55 53 52 56 47 44 45 52 50 53 54 53 45 43 38 35 27 22 20 22 24 28 32
82 73 75 74 66 65 62 72 73 69 67 63 68 54 57 62 57 57 58 56 54 52 50 51 42 38 42 46 49 50 54 52 46 41 36 35 26 23 18 23 26 28 33 35
69 67 63 63 56 64 64 73 71 64 59 56 55 39 53 56 56 59 54 50 51 49 47 38 34 37 41 44 47 48 50 50 43 38 32 29 22 19 20 24 28 32 34 29
82 76 77 65 71 67 70 65 57 53 52 43 41 34 50 58 55 50 49 50 47 45 34 31 34 38 41 43 45 45 46 45 36 32 30 24 20 16 22 27 33 27 26 24
88 77 71 65 61 59 53 49 48 45 40 30 37 33 53 52 43 44 46 44 43 30 26 30 32 38 39 41 43 45 42 37 31 29 26 20 13 17 23 29 25 25 26 19
94 82 69 62 57 54 52 52 45 39 31 34 35 35 51 40 36 40 40 34 24 21 26 28 32 35 37 40 42 41 38 32 30 28 21 12 12 19 26 21 23 26 19 11
101 88 79 70 66 62 54 43 46 32 22 36 31 38 44 33 35 34 25 18 19 22 26 27 28 32 38 37 39 36 32 29 27 22 13 7 12 24 25 17 20 22 16 9
100 91 77 74 72 63 53 49 30 23 26 31 37 42 43 28 26 20 15 18 19 22 26 27 25 33 33 36 38 34 28 25 22 17 5 5 14 25 22 16 20 21 13 11
103 94 86 79 61 57 50 37 31 24 31 40 41 37 38 28 19 14 16 19 23 22 23 21 26 28 32 35 32 26 24 21 18 11 2 6 15 27 23 15 20 21 16 13
108 97 88 70 67 62 55 43 35 30 39 42 38 38 30 17 19 18 20 20 22 20 19 19 26 28 27 28 25 24 21 18 14 6 5 4 15 20 28 17 17 18 17 16
111 103 89 80 68 62 49 40 35 29 36 34 35 38 21 25 24 22 23 20 22 16 14 21 20 25 23 25 23 22 20 16 10 3 6 3 10 13 22 27 14 17 18 16
108 96 88 77 62 57 50 43 39 33 36 35 34 31 28 30 28 23 20 20 22 15 16 15 19 21 21 23 22 20 19 14 6 3 9 4 4 10 15 23 23 13 16 18
103 93 87 75 64 60 53 49 44 37 37 35 40 32 34 31 24 22 17 21 21 15 15 11 17 17 18 20 20 17 15 12 6 4 11 7 3 2 10 15 22 15 11 16
103 94 87 79 66 63 56 50 43 44 43 44 43 37 32 30 28 23 17 27 21 15 11 11 14 15 16 19 20 14 13 11 8 3 7 8 6 2 4 10 17 18 14 14
103 95 88 81 67 66 60 53 47 48 45 46 45 43 37 33 27 26 17 31 21 15 10 9 9 13 15 18 20 14 12 9 9 2 4 8 8 4 1 6 13 18 17 14
99 93 88 82 71 65 64 59 53 53 52 52 50 40 35 35 33 24 19 32 25 17 11 6 8 11 13 16 20 14 12 9 9 6 2 5 7 5 3 4 9 15 18 17
96 91 88 82 72 68 69 62 56 53 56 54 53 45 38 35 29 30 25 33 25 20 13 8 7 8 10 13 18 17 13 9 9 9 7 3 8 8 4 2 7 12 16 19
94 91 89 83 77 71 63 62 59 55 59 57 53 47 41 36 28 25 31 32 26 21 16 10 4 5 8 10 14 17 14 9 10 9 10 9 5 6 6 4 4 7 14 20
97 93 91 85 80 72 68 67 64 59 52 51 48 44 42 35 29 24 34 32 27 24 17 12 5 2 6 8 11 14 16 11 10 9 9 9 11 13 13 8 5 6 13 18
98 95 93 88 82 78 73 65 59 53 52 46 39 36 38 35 29 28 34 33 31 25 19 15 8 1 4 6 8 12 15 16 11 8 9 9 8 10 14 14 11 10 13 13
99 97 94 89 81 76 71 63 59 58 54 49 39 42 41 39 34 33 35 36 31 27 20 15 10 4 3 4 7 9 12 15 16 13 7 8 9 8 7 9 14 13 12 12
99 98 94 90 85 79 72 68 64 62 58 52 44 46 44 40 38 38 38 37 35 29 24 20 14 8 5 4 3 6 9 11 13 16 16 10 8 8 8 8 7 8 10 12
100 97 95 93 88 81 76 72 67 65 61 55 49 49 48 44 41 39 42 40 37 33 28 26 20 16 11 8 4 3 6 8 10 11 14 17 15 7 6 8 8 8 6 5
97 98 96 93 88 81 78 75 72 68 64 60 55 52 51 49 46 44 41 40 40 38 35 30 27 22 19 16 10 4 2 4 5 8 10 13 14 15 10 9 4 6 6 5
Wind_Direction
250 253 258 255 254 254 257 262 263 262 260 265 271 272 264 267 273 275 279 281 284 285 286 289 292 296 301 306 312 319 318 320 320 319 317 315 312 305 300 299 305 300 304 308
248 252 254 254 253 254 257 261 261 257 258 263 265 268 267 268 269 275 274 277 282 282 283 286 290 295 301 307 314 317 317 320 318 318 315 313 307 303 301 305 305 307 313 314
251 247 245 250 252 257 259 259 256 259 260 264 266 269 268 267 267 272 271 274 276 278 283 286 290 296 302 310 314 316 316 313 318 318 312 308 308 308 305 309 306 319 316 316
245 245 250 251 254 256 258 254 254 258 265 269 272 270 264 261 262 263 264 268 274 279 280 282 291 299 307 313 313 313 310 317 318 313 312 310 313 313 318 317 316 319 317 318
243 242 246 250 252 251 251 257 261 269 273 272 274 270 258 254 252 255 262 269 271 274 276 286 296 304 312 309 309 311 312 317 314 311 311 311 313 320 327 329 330 325 321 322
237 236 239 240 245 248 254 264 270 271 271 272 258 244 249 247 249 252 259 262 266 271 279 292 300 310 304 305 310 309 315 316 312 309 309 310 317 329 330 335 338 335 330 333
236 235 236 239 246 252 257 262 265 264 266 245 239 240 245 246 246 248 253 254 263 270 285 294 309 300 301 308 310 317 317 315 310 308 309 310 323 339 344 342 342 336 338 339
230 231 233 237 240 245 243 247 256 264 262 219 229 217 242 242 240 244 247 254 258 278 284 291 302 298 303 311 315 312 312 314 307 312 309 314 353 6 356 351 340 339 348 11
229 229 228 228 229 234 238 243 243 261 243 221 218 192 236 225 231 239 241 252 265 273 275 296 296 300 304 311 310 311 313 308 308 310 313 358 20 13 3 1 355 6 11 64
227 226 225 227 228 232 238 238 259 257 228 213 199 207 233 219 221 225 242 250 266 278 278 296 293 296 305 302 309 307 314 308 305 309 321 42 31 21 16 14 22 24 46 83
224 224 224 226 230 233 236 238 238 231 208 203 202 211 215 217 217 230 240 257 275 272 277 288 290 299 299 302 307 317 313 306 305 309 151 56 43 34 23 26 40 39 59 93
221 220 223 221 223 223 225 227 231 215 203 209 209 215 209 204 225 233 246 261 261 260 269 274 290 295 305 316 318 317 310 306 305 292 163 68 57 41 29 30 43 45 58 84
217 218 219 220 221 224 225 231 229 212 208 210 214 219 204 224 230 243 259 247 248 259 255 274 292 296 315 326 325 320 314 311 308 269 180 159 59 42 34 33 46 59 58 77
213 213 218 218 215 219 220 226 226 218 200 201 217 219 214 224 235 250 237 240 238 238 248 275 290 305 321 332 326 333 321 320 317 208 171 186 85 45 36 36 39 61 70 75
204 207 213 212 213 215 214 218 217 209 198 208 219 214 225 238 246 237 234 230 233 221 247 272 293 314 326 337 335 336 328 328 326 242 217 214 159 41 27 45 41 53 75 75
200 204 208 210 209 212 212 214 216 207 209 212 224 224 227 234 239 242 241 217 215 219 236 267 295 315 328 342 342 337 333 333 340 254 212 214 228 247 347 47 47 53 66 72
198 200 204 209 207 207 209 211 207 202 209 219 227 221 229 237 241 252 235 211 203 209 226 258 296 308 338 348 349 351 343 344 353 330 210 214 223 251 299 57 56 57 59 64
196 200 203 207 205 204 205 207 205 202 206 217 226 225 236 247 255 259 239 208 200 201 216 245 278 310 331 352 359 360 348 359 4 11 217 228 216 212 224 94 75 63 62 68
194 197 203 206 206 204 204 204 206 205 209 218 224 224 230 238 245 257 223 198 203 198 200 222 270 312 331 354 3 6 3 12 17 24 64 128 232 218 171 125 89 73 76 78
193 195 202 203 204 204 204 204 204 205 211 216 224 225 229 236 239 238 198 194 202 208 204 214 248 319 331 357 6 11 18 23 23 29 50 76 106 147 125 148 126 87 103 92
192 194 199 201 203 202 205 203 202 204 207 215 224 225 228 223 219 211 189 194 202 202 208 218 219 298 331 349 12 13 24 27 37 28 40 56 77 95 99 115 132 127 126 112
191 194 199 202 203 201 204 205 203 203 209 214 218 211 200 210 200 198 186 193 206 203 206 217 212 230 326 353 13 22 27 30 33 36 33 36 48 70 92 99 121 134 138 128
190 195 199 202 205 203 202 204 201 202 206 211 209 197 198 202 196 192 188 192 204 206 207 222 209 199 286 353 14 22 34 30 31 34 33 42 39 41 55 83 100 120 146 152
193 195 199 202 202 202 200 204 200 202 205 208 207 196 197 200 198 191 192 196 201 207 208 220 226 210 232 288 3 11 34 39 27 32 36 27 36 42 47 54 69 94 114 148
195 197 199 203 203 202 202 203 200 202 204 205 203 198 196 198 202 197 196 200 204 207 214 215 223 235 228 246 281 346 7 33 37 28 28 39 37 20 13 9 32 53 85 131
196 199 200 203 205 205 204 204 202 201 203 206 204 202 197 199 202 204 202 201 209 213 215 219 221 225 241 244 245 261 324 352 12 40 33 31 37 42 32 15 3 15 30 41
Height
10656 10660 10693 10691 10696 10705 10707 10718 10729 10729 10726 10722 10738 10750 10758 10752 10754 10758 10757 10755 10755 10755 10748 10746 10741 10735 10730 10722 10715 10706 10698 10689 10683 10676 10667 10658 10653 10647 10640 10633 10629 10624 10619 10614
10634 10667 10669 10666 10674 10683 10696 10709 10715 10710 10714 10718 10722 10734 10743 10741 10741 10749 10746 10743 10744 10743 10739 10736 10732 10727 10721 10713 10706 10698 10690 10683 10676 10667 10659 10653 10647 10639 10633 10628 10624 10618 10612 10606
10621 10661 10631 10644 10656 10671 10684 10691 10688 10694 10695 10707 10715 10726 10730 10729 10730 10736 10733 10733 10734 10733 10731 10726 10722 10718 10711 10704 10697 10690 10682 10677 10668 10660 10654 10647 10639 10633 10628 10623 10617 10612 10606 10598
10605 10622 10630 10639 10654 10659 10671 10660 10668 10681 10690 10702 10701 10722 10717 10709 10720 10721 10720 10723 10724 10725 10721 10717 10713 10709 10702 10696 10689 10683 10677 10669 10661 10655 10649 10640 10633 10628 10623 10618 10613 10606 10598 10590
10609 10609 10617 10627 10639 10637 10650 10647 10659 10674 10683 10689 10690 10706 10692 10691 10705 10703 10711 10715 10714 10714 10710 10708 10706 10700 10694 10688 10683 10676 10669 10661 10655 10650 10642 10635 10630 10624 10619 10614 10607 10598 10589 10582
10574 10587 10591 10614 10616 10626 10636 10644 10654 10662 10668 10678 10673 10683 10673 10678 10689 10697 10701 10702 10705 10703 10702 10701 10697 10691 10686 10682 10676 10670 10661 10654 10650 10644 10637 10631 10627 10622 10617 10610 10601 10592 10584 10578
10554 10573 10587 10597 10608 10617 10629 10635 10643 10649 10658 10664 10660 10670 10657 10670 10683 10688 10690 10694 10695 10696 10695 10693 10687 10683 10679 10674 10668 10660 10653 10650 10645 10639 10633 10628 10624 10620 10614 10606 10598 10590 10582 10575
10537 10554 10576 10591 10604 10612 10619 10623 10634 10642 10648 10651 10651 10658 10652 10668 10678 10679 10683 10686 10688 10689 10687 10683 10680 10677 10672 10667 10660 10654 10650 10646 10641 10635 10630 10626 10623 10618 10611 10603 10596 10587 10580 10576
10520 10542 10557 10573 10584 10594 10609 10626 10622 10638 10644 10645 10649 10650 10648 10664 10665 10672 10677 10680 10682 10682 10678 10676 10673 10670 10666 10661 10655 10651 10646 10642 10638 10632 10627 10625 10622 10616 10608 10603 10595 10586 10580 10579
10510 10528 10547 10556 10567 10588 10606 10611 10628 10634 10638 10640 10644 10647 10647 10657 10663 10667 10671 10674 10676 10674 10671 10670 10668 10666 10661 10656 10651 10645 10641 10638 10634 10629 10626 10625 10621 10615 10608 10603 10595 10588 10583 10582
10492 10513 10528 10542 10574 10586 10599 10613 10622 10626 10633 10635 10637 10641 10644 10650 10658 10663 10667 10671 10671 10667 10665 10665 10664 10661 10657 10652 10646 10641 10638 10635 10630 10627 10626 10624 10621 10615 10610 10605 10597 10592 10588 10585
10470 10498 10517 10549 10556 10570 10586 10601 10612 10616 10622 10627 10630 10631 10642 10649 10651 10657 10662 10664 10664 10661 10661 10661 10660 10657 10652 10646 10640 10638 10635 10632 10627 10624 10624 10624 10620 10617 10613 10606 10601 10597 10593 10590
10456 10483 10505 10525 10545 10562 10585 10598 10606 10612 10617 10623 10626 10625 10638 10643 10646 10652 10655 10657 10656 10656 10658 10658 10656 10653 10648 10643 10637 10635 10633 10629 10625 10623 10623 10623 10620 10618 10614 10608 10604 10601 10596 10594
10448 10480 10502 10525 10545 10560 10577 10589 10595 10604 10612 10616 10619 10622 10633 10636 10641 10648 10650 10651 10651 10652 10655 10654 10652 10649 10645 10640 10636 10633 10631 10627 10624 10623 10622 10622 10620 10619 10616 10611 10607 10604 10600 10598
10443 10470 10493 10514 10533 10548 10565 10574 10584 10595 10604 10608 10610 10618 10624 10631 10639 10644 10646 10647 10647 10650 10651 10651 10650 10647 10643 10639 10634 10632 10629 10627 10623 10622 10621 10620 10619 10619 10617 10613 10609 10605 10603 10601
10431 10460 10480 10501 10522 10537 10554 10565 10579 10587 10593 10595 10600 10612 10622 10628 10635 10640 10642 10643 10644 10647 10648 10649 10647 10645 10642 10637 10633 10630 10628 10626 10622 10620 10619 10618 10618 10618 10618 10615 10611 10607 10605 10603
10420 10448 10468 10490 10512 10525 10544 10556 10567 10577 10586 10591 10596 10606 10615 10622 10630 10634 10636 10638 10641 10644 10646 10646 10646 10644 10641 10637 10632 10629 10627 10624 10621 10619 10617 10617 10616 10617 10618 10616 10613 10611 10607 10604
10414 10440 10458 10479 10500 10517 10532 10545 10555 10565 10577 10580 10586 10607 10615 10619 10626 10629 10632 10633 10636 10641 10643 10644 10644 10642 10641 10637 10633 10630 10627 10624 10621 10619 10617 10616 10617 10616 10617 10617 10615 10613 10610 10607
10410 10433 10450 10470 10491 10509 10519 10537 10550 10561 10568 10573 10582 10599 10607 10612 10618 10621 10626 10629 10634 10638 10640 10642 10642 10641 10640 10637 10634 10631 10628 10625 10622 10620 10617 10616 10616 10616 10616 10617 10616 10616 10614 10611
10403 10423 10440 10460 10477 10499 10518 10531 10543 10551 10559 10570 10575 10591 10599 10605 10610 10616 10621 10626 10632 10638 10638 10640 10640 10639 10639 10638 10635 10633 10630 10627 10625 10622 10621 10618 10617 10616 10616 10616 10617 10618 10617 10616
10393 10412 10425 10447 10468 10492 10506 10516 10529 10543 10558 10566 10572 10585 10593 10598 10603 10610 10617 10623 10630 10634 10637 10638 10638 10638 10638 10637 10635 10634 10632 10630 10628 10625 10624 10622 10620 10617 10616 10617 10617 10618 10619 10619
10385 10402 10416 10438 10457 10477 10494 10512 10532 10547 10552 10560 10567 10578 10584 10589 10597 10604 10612 10620 10626 10631 10634 10636 10637 10637 10638 10637 10636 10635 10633 10631 10630 10628 10626 10625 10624 10621 10618 10619 10619 10619 10620 10621
10376 10392 10409 10431 10454 10474 10494 10512 10528 10536 10545 10553 10562 10571 10576 10582 10590 10597 10607 10614 10621 10627 10631 10634 10635 10636 10637 10637 10636 10636 10634 10633 10631 10630 10629 10627 10625 10624 10623 10622 10621 10621 10622 10624
10367 10382 10402 10420 10440 10463 10486 10500 10516 10527 10536 10546 10556 10563 10570 10577 10583 10591 10599 10608 10615 10621 10626 10629 10632 10633 10635 10636 10636 10635 10635 10634 10633 10632 10630 10629 10627 10626 10626 10625 10624 10624 10624 10625
10359 10379 10396 10410 10431 10455 10474 10490 10507 10519 10529 10538 10548 10557 10563 10570 10577 10585 10592 10600 10608 10615 10621 10624 10626 10629 10632 10633 10634 10634 10634 10634 10634 10633 10632 10631 10629 10628 10627 10627 10627 10626 10626 10626
10357 10372 10387 10403 10426 10449 10466 10480 10495 10509 10519 10529 10539 10549 10556 10562 10569 10576 10585 10593 10600 10607 10612 10617 10621 10624 10628 10631 10631 10632 10633 10633 10634 10633 10633 10632 10631 10631 10629 10628 10627 10627 10627 10628